Погода в Суворовке

Россия / Калининградская область     54°25′23″N   22°03′12″E
темп.,
°C
ветер,
м/с
пор.,
м/с
влажн.,
%
обл.,
%
осадки,
мм/ч
давл.,
гПа
погр.,
м
18 мая, вт
вт1823:00+11всв338289 0.0 100439
02:00+10в2293100 0.0 100418
05:00+10св2395100 0.0 100447
08:00+14св2481100 0.0 1004346
11:00+17св3568100 0.0 10041073
14:00+18ссв4561100 0.1 10041481
17:00+16св346799 0.1 1004889
20:00+12с228179 0.1 100531
19 мая, ср
ср1923:00+10сз229096 0.0 100649
02:00+8зсз3597100 0.0 1006130
05:00+7з3798100 0.0 1006186
08:00+11зсз588098 0.0 1007454
11:00+15зсз676989 0.1 10071267
14:00+14зсз5775100 1.0 10081074
17:00+14сз5872100 0.2 1009926
20:00+10сз410917 0.5 1010434
20 мая, чт
чт2023:00+7з379929 0.0 1011184
02:00+5зюз37965 0.0 1012138
05:00+5зюз37972 0.0 1012152
08:00+10з47815 0.0 1013436
11:00+15зсз56618 0.0 10131340
14:00+16сз67559 0.0 10131807
17:00+14зсз57639 0.1 10141634
20:00+9сз37835 0.2 1016239
21 мая, пт
пт2123:00+5зюз35920 0.0 101782
02:00+4юз39960 0.0 1017183
05:00+4юз410920 0.0 1017208
08:00+10зюз5974100 0.0 1017647
11:00+14юз566294 0.0 10161452
14:00+15юз4766100 0.1 10151589
17:00+16ююз486792 0.3 10141177
20:00+12ююв3978100 0.4 1013206
22 мая, сб
сб2223:00+13ююв61564100 0.0 1011585
02:00+13ю81659100 0.0 1009798
05:00+11ююз61492100 0.8 1009630
08:00+12ю51090100 0.9 1009473
11:00+17ю6107294 0.2 1009803
14:00+20ю61065100 0.8 10071611
17:00+18ююв61270100 0.9 10061027
20:00+15ююв61482100 1.6 1004514